Berea, KY

9:26 AM EST on February 12, 2016 (GMT -0500)
Richmond

Weather History for KI39 - September, 2014

Change the Weather History Date:

Tuesday, September 16, 2014

  Actual Average (KLOZ) Record (KLOZ)
Temperature  
Mean Temperature 60 °F 68 °F  
Max Temperature 68 °F 80 °F 92 °F (1955)
Min Temperature 53 °F 57 °F 36 °F (1961)
Degree Days  
Heating Degree Days 4 1  
Month to date heating degree days 6  
Since 1 July heating degree days 7  
Cooling Degree Days 0 4  
Month to date cooling degree days 101  
Year to date cooling degree days 1125  
Growing Degree Days 10 (Base 50)    
Moisture  
Dew Point 58 °F    
Average Humidity 85    
Maximum Humidity 94    
Minimum Humidity 68    
Precipitation  
Precipitation 0.00 in 0.12 in 2.25 in (1962)
Month to date precipitation 1.79  
Year to date precipitation 34.47  
Sea Level Pressure  
Sea Level Pressure 30.10 in    
Wind  
Wind Speed 2 mph (NNE)    
Max Wind Speed 10 mph    
Max Gust Speed -    
Visibility 7 miles    
Events      
T = Trace of Precipitation, MM = Missing Value Source: NWS Daily Summary

Daily Weather History Graph

Daily Weather History Graph

Search for Another Location

Airport or City:

Trip Planner

Search our weather history database for the weather conditions in past years. The results will help you decide how hot, cold, wet, or windy it might be!

Date:

Astronomy

Sep. 16, 2014 Rise Set
Actual Time 7:20 AM EDT 7:43 PM EDT
Civil Twilight 6:53 AM EDT 8:09 PM EDT
Nautical Twilight 6:22 AM EDT 8:40 PM EDT
Astronomical Twilight 5:51 AM EDT 9:11 PM EDT
Moon 12:34 AM EDT (9/16) 3:01 PM EDT (9/16)
Length of Visible Light 13h 15m
Length of Day
12h 23m
Last Quarter, 44% of the Moon is Illuminated
Sep 16
Last Quarter
Sep 24
New
Oct 1
First Quarter
Oct 8
Full
Oct 15
Last Quarter

Hourly Weather History & Observations

Time (EDT) Temp. Dew Point Humidity Pressure Visibility Wind Dir Wind Speed Gust Speed Precip Events Conditions
12:15 AM 64.4 °F 59.0 °F 83% 30.09 in 10.0 mi Calm Calm - N/A   Mostly Cloudy
12:35 AM 62.6 °F 59.0 °F 88% 30.09 in 10.0 mi Calm Calm - N/A   Mostly Cloudy
12:55 AM 62.6 °F 59.0 °F 88% 30.09 in 10.0 mi Calm Calm - N/A   Overcast
1:15 AM 62.6 °F 59.0 °F 88% 30.08 in 10.0 mi South 4.6 mph - N/A   Overcast
1:35 AM 64.4 °F 59.0 °F 83% 30.09 in 10.0 mi South 5.8 mph - N/A   Overcast
1:55 AM 64.4 °F 59.0 °F 83% 30.09 in 10.0 mi Calm Calm - N/A   Overcast
2:15 AM 62.6 °F 59.0 °F 88% 30.09 in 10.0 mi Calm Calm - N/A   Overcast
2:35 AM 62.6 °F 59.0 °F 88% 30.09 in 10.0 mi SW 4.6 mph - N/A   Overcast
2:55 AM 64.4 °F 59.0 °F 83% 30.09 in 10.0 mi Calm Calm - N/A   Overcast
3:15 AM 62.6 °F 59.0 °F 88% 30.09 in 10.0 mi Calm Calm - N/A   Overcast
3:35 AM 64.4 °F 59.0 °F 83% 30.09 in 7.0 mi Calm Calm - N/A   Overcast
3:55 AM 62.6 °F 59.0 °F 88% 30.09 in 10.0 mi Calm Calm - N/A   Overcast
4:15 AM 62.6 °F 59.0 °F 88% 30.09 in 10.0 mi North 3.5 mph - N/A   Overcast
4:35 AM 62.6 °F 59.0 °F 88% 30.09 in 10.0 mi Calm Calm - N/A   Overcast
4:55 AM 62.6 °F 59.0 °F 88% 30.09 in 10.0 mi Calm Calm - N/A   Overcast
5:15 AM 62.6 °F 59.0 °F 88% 30.09 in 5.0 mi Calm Calm - N/A   Overcast
5:35 AM 62.6 °F 59.0 °F 88% 30.08 in 7.0 mi Calm Calm - N/A   Overcast
5:55 AM 62.6 °F 60.8 °F 94% 30.09 in 7.0 mi Calm Calm - N/A   Overcast
6:20 AM 62.6 °F 60.8 °F 94% 30.09 in 7.0 mi Calm Calm - N/A   Overcast
6:35 AM 62.6 °F 60.8 °F 94% 30.09 in 7.0 mi Calm Calm - N/A   Overcast
6:55 AM 62.6 °F 60.8 °F 94% 30.10 in 5.0 mi Calm Calm - N/A   Overcast
7:15 AM 62.6 °F 60.8 °F 94% 30.10 in 5.0 mi Calm Calm - N/A   Overcast
7:35 AM 62.6 °F 60.8 °F 94% 30.10 in 5.0 mi Calm Calm - N/A   Overcast
7:55 AM 62.6 °F 60.8 °F 94% 30.10 in 5.0 mi Calm Calm - N/A   Overcast
8:15 AM 62.6 °F 60.8 °F 94% 30.11 in 3.0 mi Calm Calm - N/A   Overcast
8:35 AM 62.6 °F 60.8 °F 94% 30.11 in 3.0 mi Calm Calm - N/A   Overcast
8:55 AM 62.6 °F 60.8 °F 94% 30.11 in 1.5 mi Calm Calm - N/A   Overcast
9:15 AM 62.6 °F 60.8 °F 94% 30.11 in 1.0 mi Calm Calm - N/A   Overcast
9:35 AM 62.6 °F 60.8 °F 94% 30.11 in 0.8 mi NW 3.5 mph - N/A   Overcast
9:55 AM 62.6 °F 60.8 °F 94% 30.12 in 1.2 mi North 4.6 mph - N/A   Overcast
10:15 AM 62.6 °F 60.8 °F 94% 30.13 in 2.0 mi North 5.8 mph - N/A   Overcast
10:35 AM 60.8 °F 59.0 °F 94% 30.13 in 1.2 mi North 6.9 mph - N/A   Overcast
10:55 AM 60.8 °F 59.0 °F 94% 30.13 in 4.0 mi North 8.1 mph - N/A   Overcast
11:15 AM 60.8 °F 59.0 °F 94% 30.13 in 5.0 mi North 3.5 mph - N/A   Overcast
11:35 AM 62.6 °F 59.0 °F 88% 30.12 in 7.0 mi North 4.6 mph - N/A   Overcast
11:55 AM 62.6 °F 59.0 °F 88% 30.13 in 7.0 mi NNE 5.8 mph - N/A   Overcast
12:15 PM 64.4 °F 59.0 °F 83% 30.13 in 7.0 mi NNE 5.8 mph - N/A   Overcast
12:35 PM 62.6 °F 59.0 °F 88% 30.12 in 7.0 mi NNW 6.9 mph - N/A   Overcast
12:55 PM 64.4 °F 59.0 °F 83% 30.12 in 7.0 mi North 4.6 mph - N/A   Overcast
1:15 PM 64.4 °F 57.2 °F 77% 30.12 in 7.0 mi North 4.6 mph - N/A   Overcast
1:35 PM 66.2 °F 59.0 °F 78% 30.11 in 10.0 mi North 6.9 mph - N/A   Mostly Cloudy
1:55 PM 66.2 °F 57.2 °F 73% 30.11 in 10.0 mi North 8.1 mph - N/A   Overcast
2:15 PM 64.4 °F 57.2 °F 77% 30.11 in 10.0 mi North 10.4 mph - N/A   Overcast
2:35 PM 64.4 °F 57.2 °F 77% 30.11 in 7.0 mi North 9.2 mph - N/A   Overcast
2:55 PM 62.6 °F 57.2 °F 82% 30.11 in 7.0 mi North 5.8 mph - N/A   Overcast
3:15 PM 62.6 °F 57.2 °F 82% 30.11 in 7.0 mi North 5.8 mph - N/A   Overcast
3:35 PM 64.4 °F 57.2 °F 77% 30.10 in 7.0 mi North 5.8 mph - N/A   Overcast
4:15 PM 64.4 °F 57.2 °F 77% 30.10 in 7.0 mi North 5.8 mph - N/A   Mostly Cloudy
4:35 PM 64.4 °F 57.2 °F 77% 30.10 in 7.0 mi ENE 3.5 mph - N/A   Overcast
4:55 PM 64.4 °F 55.4 °F 73% 30.09 in 10.0 mi Calm Calm - N/A   Mostly Cloudy
5:15 PM 66.2 °F 57.2 °F 73% 30.08 in 7.0 mi NNE 4.6 mph - N/A   Scattered Clouds
5:35 PM 68.0 °F 57.2 °F 68% 30.08 in 7.0 mi ENE 5.8 mph - N/A   Scattered Clouds
5:55 PM 66.2 °F 55.4 °F 68% 30.08 in 7.0 mi East 6.9 mph - N/A   Scattered Clouds
6:15 PM 66.2 °F 55.4 °F 68% 30.07 in 7.0 mi Calm Calm - N/A   Clear
6:35 PM 66.2 °F 57.2 °F 73% 30.08 in 7.0 mi ENE 4.6 mph - N/A   Mostly Cloudy
6:55 PM 64.4 °F 57.2 °F 77% 30.07 in 7.0 mi Calm Calm - N/A   Overcast
7:15 PM 62.6 °F 57.2 °F 82% 30.07 in 7.0 mi ENE 4.6 mph - N/A   Overcast
7:35 PM 62.6 °F 55.4 °F 77% 30.07 in 5.0 mi NE 3.5 mph - N/A   Scattered Clouds
7:55 PM 60.8 °F 55.4 °F 82% 30.07 in 7.0 mi Calm Calm - N/A   Clear
8:15 PM 59.0 °F 55.4 °F 88% 30.07 in 7.0 mi NE 3.5 mph - N/A   Clear
8:35 PM 59.0 °F 55.4 °F 88% 30.08 in 7.0 mi NNE 5.8 mph - N/A   Mostly Cloudy
8:55 PM 59.0 °F 53.6 °F 82% 30.08 in 10.0 mi North 4.6 mph - N/A   Overcast
9:15 PM 59.0 °F 53.6 °F 82% 30.08 in 10.0 mi North 4.6 mph - N/A   Overcast
9:35 PM 57.2 °F 51.8 °F 82% 30.09 in 10.0 mi NNE 4.6 mph - N/A   Mostly Cloudy
9:55 PM 57.2 °F 51.8 °F 82% 30.09 in 10.0 mi NNE 3.5 mph - N/A   Scattered Clouds
10:15 PM 55.4 °F 51.8 °F 88% 30.09 in 10.0 mi Calm Calm - N/A   Scattered Clouds
10:35 PM 55.4 °F 51.8 °F 88% 30.09 in 10.0 mi NNE 3.5 mph - N/A   Scattered Clouds
10:55 PM 55.4 °F 51.8 °F 88% 30.09 in 10.0 mi Calm Calm - N/A   Scattered Clouds
11:15 PM 55.4 °F 51.8 °F 88% 30.10 in 10.0 mi Calm Calm - N/A   Clear
11:35 PM 53.6 °F 51.8 °F 94% 30.10 in 10.0 mi Calm Calm - N/A   Scattered Clouds
11:55 PM 53.6 °F 51.8 °F 94% 30.10 in 10.0 mi Calm Calm - N/A   Overcast